Weather History for KFYV - December, 2012

Change the Weather History Date:

Monday, December 24, 2012

  Actual Average Record
Temperature  
Mean Temperature 36 °F 36 °F  
Max Temperature 47 °F 46 °F 77 °F (1955)
Min Temperature 25 °F 25 °F -7 °F (1983)
Degree Days  
Heating Degree Days 29 29  
Month to date heating degree days 451 649  
Since 1 July heating degree days 1264 1478  
Moisture  
Dew Point 27 °F    
Average Humidity 69    
Maximum Humidity 92    
Minimum Humidity 45    
Precipitation  
Precipitation 0.00 in 0.10 in - ()
Month to date precipitation 1.93 2.58  
Year to date precipitation 29.84 47.85  
Sea Level Pressure  
Sea Level Pressure 29.97 in    
Wind  
Wind Speed 5 mph (North)    
Max Wind Speed 12 mph    
Max Gust Speed 15 mph    
Visibility 7 miles    
Events      
T = Trace of Precipitation, MM = Missing Value Source: NWS Daily Summary

Daily Weather History Graph

Daily Weather History Graph

Search for Another Location

Airport or City:

Trip Planner

Search our weather history database for the weather conditions in past years. The results will help you decide how hot, cold, wet, or windy it might be!

Date:

Astronomy

Dec. 24, 2012 Rise Set
Actual Time 7:25 AM CST 5:08 PM CST
Civil Twilight 6:56 AM CST 5:36 PM CST
Nautical Twilight 6:24 AM CST 6:08 PM CST
Astronomical Twilight 5:53 AM CST 6:40 PM CST
Moon 2:33 PM CST (12/24) 4:06 AM CST (12/24)
Length of Visible Light 10h 40m
Length of Day
9h 43m
Waxing Gibbous, 88% of the Moon is Illuminated
Dec 24
Waxing Gibbous
Dec 28
Full
Jan 4
Last Quarter
Jan 11
New
Jan 18
First Quarter

Hourly Weather History & Observations

Time (CST) Temp. Windchill Dew Point Humidity Pressure Visibility Wind Dir Wind Speed Gust Speed Precip Events Conditions
12:53 AM 37.9 °F 32.7 °F 35.1 °F 89% 29.86 in 10.0 mi NW 6.9 mph - N/A   Partly Cloudy
1:53 AM 37.9 °F 30.0 °F 33.1 °F 83% 29.88 in 10.0 mi NW 12.7 mph - N/A   Clear
2:53 AM 35.1 °F 32.2 °F 30.0 °F 82% 29.89 in 9.0 mi NNE 3.5 mph - N/A   Clear
3:53 AM 30.9 °F - 28.0 °F 89% 29.91 in 7.0 mi Calm Calm - N/A   Clear
4:53 AM 30.0 °F 23.2 °F 27.0 °F 88% 29.95 in 6.0 mi WNW 6.9 mph - N/A   Clear
5:22 AM 28.4 °F 24.6 °F 26.6 °F 93% 29.94 in 5.0 mi NNW 3.5 mph - N/A   Scattered Clouds
5:34 AM 28.4 °F - 26.6 °F 93% 29.94 in 4.0 mi Calm Calm - N/A   Mostly Cloudy
5:53 AM 28.9 °F - 26.1 °F 89% 29.96 in 4.0 mi Calm Calm - N/A   Mostly Cloudy
6:53 AM 27.0 °F 19.5 °F 24.1 °F 89% 30.02 in 4.0 mi NW 6.9 mph - N/A   Partly Cloudy
7:53 AM 26.1 °F 21.9 °F 24.1 °F 92% 30.04 in 3.0 mi North 3.5 mph - N/A   Mostly Cloudy
8:51 AM 28.4 °F 24.6 °F 24.8 °F 86% 30.02 in 3.0 mi North 3.5 mph - N/A   Scattered Clouds
8:53 AM 28.9 °F 25.2 °F 25.0 °F 85% 30.04 in 3.0 mi Variable 3.5 mph - N/A   Mostly Cloudy
9:53 AM 30.9 °F 27.5 °F 25.0 °F 79% 30.03 in 4.0 mi NNE 3.5 mph - N/A   Haze
10:00 AM 30.2 °F 24.3 °F 26.6 °F 86% 30.02 in 4.0 mi NE 5.8 mph - N/A   Haze
10:53 AM 34.0 °F 29.8 °F 27.0 °F 75% 30.02 in 5.0 mi NNE 4.6 mph - N/A   Haze
11:53 AM 37.9 °F - 27.0 °F 65% 30.00 in 7.0 mi Calm Calm - N/A   Clear
12:53 PM 42.1 °F 40.2 °F 27.0 °F 55% 29.97 in 8.0 mi North 3.5 mph - N/A   Clear
1:53 PM 45.0 °F 42.6 °F 28.0 °F 52% 29.95 in 8.0 mi NNE 4.6 mph - N/A   Clear
2:53 PM 46.0 °F 43.1 °F 27.0 °F 47% 29.95 in 10.0 mi Variable 5.8 mph - N/A   Clear
3:53 PM 44.1 °F 40.8 °F 26.1 °F 49% 29.96 in 10.0 mi North 5.8 mph - N/A   Clear
4:53 PM 39.9 °F 34.5 °F 26.1 °F 58% 29.99 in 8.0 mi North 8.1 mph - N/A   Clear
5:53 PM 37.9 °F 35.5 °F 26.1 °F 62% 30.00 in 8.0 mi North 3.5 mph - N/A   Clear
6:53 PM 37.0 °F 33.3 °F 27.0 °F 67% 29.99 in 8.0 mi NE 4.6 mph - N/A   Clear
7:53 PM 36.0 °F 29.0 °F 26.1 °F 67% 29.97 in 8.0 mi NE 9.2 mph - N/A   Clear
8:53 PM 35.1 °F 32.2 °F 26.1 °F 70% 29.99 in 8.0 mi Variable 3.5 mph - N/A   Clear
9:53 PM 34.0 °F 27.2 °F 26.1 °F 73% 29.98 in 7.0 mi NE 8.1 mph - N/A   Clear
10:53 PM 33.1 °F 24.9 °F 26.1 °F 75% 29.97 in 7.0 mi ENE 10.4 mph - N/A   Clear
11:53 PM 32.0 °F 24.8 °F 25.0 °F 75% 29.96 in 6.0 mi NE 8.1 mph - N/A   Haze